DELTA 1 DEB, 21384

Orbit data source: Space-Track

DELTA 1 DEB, 21384 is space debris in SSO originally from a launch on Thu, 12 Jun 1975 UTC launched from the Air Force Western Test Range (AFWTR). Debris objects in space refer to the collection of defunct objects orbiting the Earth. Examples of debris include non-operational satellites, rocket bodies, and fragments generated from explosions, collisions, or faulty payload assembly.

Loading next visibility...
Identifier
21384, 1975-052DE
Orbit
SSO
Country
Flag of USUS
Related business
Manufacturer
Unknown
Mission
Spacecraft
Bus & Motor
Unknown
Mass
Unknown
Launch date (UTC)
1975-06-12 (51 years ago)
Launch vehicle
Unknown
Launch site
Air Force Western Test Range (AFWTR)
Object type
Payload
Rocket body
Debris
Shape & HBR
Unknown shape, 0.1 m
Radar Cross Section
Medium (>0.1 m² and <1 m²)

Expand to show TLE details & history
Last TLE update: 2 days ago

TLE from 2 days ago
0 DELTA 1 DEB
1 21384U 75052DE  26171.03823556  .00000064  00000-0  30938-3 0  9992
2 21384  99.6283  17.1527 0293348 180.4940 335.4010 12.91329176651295
Epoch: 2026-06-20T00:55Z
TLE epoch observation values (Epoch: 2026-06-20T00:55:03.552Z)
Latitude
25.19748°
Longitude
-80.31613°
Altitude
1,095.592 km
Speed
7.403 km/s
True Right ascension
13h 26m 49s
True Declination
25° 04' 16"
Sunlit
Object was in daylight at epoch
Visualization orbit readout
Latitude
Unknown
Longitude
Unknown
Altitude
Unknown
Speed
Unknown
Apparent Right ascension
Unknown
Apparent Declination
Unknown
Sunlit
N/A
Visualization observer readout
Local Sidereal Time
09:15:53
Azimuth
Unknown
Elevation
Unknown
Doppler factor
Unknown
Orbital elements
Apogee altitude
1,518.676 km
Perigee altitude
1,068.577 km
Semi-major axis
7,671.763 km
Eccentricity
0.02933
Inclination
99.6283°
RAAN
17.1527°
Arg. of periapsis
180.494°
True anomaly
333.95368°
Mean anomaly
335.401°
Eccentric anomaly
334.68224°
Mean motion
3.22998 °/min
Orbital period
111.46 mins
BSTAR
0.00030938
Loading maneuver chart data...
Computing Atmospheric mass density...
Loading historical data...
Loading historical data...
Loading historical data...
Loading historical data...
Loading historical data...
Loading historical data...
Loading historical data...

Documentation

Showing up to 5 results
|